SKW4445 KSAN-KPHX

Flight info

Callsign SKW4445
Flight time 1h 0m
Altitude 23000
Route BRDR7 IPL BZA HOGGZ MOHAK ARLIN4
Aircraft DH8D/M-VGD/C

Departure

Time 2026-05-05 19:11
Airport San Diego International Airport (KSAN)

Arrival

Time 2026-05-05 20:11
Airport Phoenix Sky Harbor International Airport (KPHX)
Time Latitude Longitude Altitude Speed Heading
2026-05-05 18:48 32.73334 -117.20191 23 ft 0 kts 84°
2026-05-05 19:00 32.73334 -117.20195 23 ft 2 kts 84°
2026-05-05 19:00 32.73332 -117.20218 23 ft 3 kts 84°
2026-05-05 19:00 32.73331 -117.20238 23 ft 3 kts 92°
2026-05-05 19:00 32.73335 -117.20258 23 ft 3 kts 132°
2026-05-05 19:01 32.73351 -117.20270 23 ft 3 kts 163°
2026-05-05 19:01 32.73361 -117.20273 23 ft 1 kts 165°
2026-05-05 19:01 32.73362 -117.20273 23 ft 0 kts 165°
2026-05-05 19:03 32.73346 -117.20279 23 ft 8 kts 202°
2026-05-05 19:03 32.73338 -117.20267 23 ft 5 kts 54°
2026-05-05 19:03 32.73371 -117.20270 23 ft 3 kts 352°
2026-05-05 19:03 32.73399 -117.20272 23 ft 6 kts
2026-05-05 19:04 32.73433 -117.20264 23 ft 0 kts 15°
2026-05-05 19:04 32.73432 -117.20264 23 ft 0 kts 15°
2026-05-05 19:04 32.73431 -117.20264 23 ft 0 kts 16°
2026-05-05 19:05 32.73431 -117.20265 23 ft 0 kts 16°
2026-05-05 19:05 32.73430 -117.20265 23 ft 0 kts 16°
2026-05-05 19:05 32.73429 -117.20265 23 ft 0 kts 17°
2026-05-05 19:05 32.73442 -117.20261 23 ft 7 kts 17°
2026-05-05 19:06 32.73499 -117.20240 23 ft 8 kts 16°
2026-05-05 19:06 32.73540 -117.20189 23 ft 10 kts 83°
2026-05-05 19:06 32.73526 -117.20107 23 ft 11 kts 109°
2026-05-05 19:06 32.73506 -117.20023 23 ft 10 kts 104°
2026-05-05 19:07 32.73486 -117.19934 23 ft 11 kts 105°
2026-05-05 19:07 32.73464 -117.19840 23 ft 12 kts 106°
2026-05-05 19:07 32.73439 -117.19738 23 ft 13 kts 106°
2026-05-05 19:07 32.73411 -117.19625 23 ft 15 kts 106°
2026-05-05 19:08 32.73382 -117.19504 23 ft 16 kts 106°
2026-05-05 19:08 32.73350 -117.19376 23 ft 17 kts 107°
2026-05-05 19:08 32.73317 -117.19238 23 ft 18 kts 105°
2026-05-05 19:08 32.73285 -117.19103 23 ft 18 kts 106°
2026-05-05 19:09 32.73250 -117.18958 23 ft 19 kts 106°
2026-05-05 19:09 32.73212 -117.18806 23 ft 20 kts 106°
2026-05-05 19:09 32.73174 -117.18646 23 ft 17 kts 105°
2026-05-05 19:09 32.73153 -117.18552 23 ft 9 kts 106°
2026-05-05 19:10 32.73172 -117.18479 23 ft 8 kts 36°
2026-05-05 19:10 32.73208 -117.18459 23 ft 7 kts 10°
2026-05-05 19:10 32.73241 -117.18494 23 ft 8 kts 290°
2026-05-05 19:10 32.73269 -117.18612 23 ft 41 kts 285°
2026-05-05 19:11 32.73441 -117.19293 27 ft 127 kts 286°
2026-05-05 19:11 32.73773 -117.20508 236 ft 178 kts 287°
2026-05-05 19:11 32.74225 -117.22000 662 ft 205 kts 289°
2026-05-05 19:11 32.74733 -117.23582 1172 ft 220 kts 290°
2026-05-05 19:12 32.75284 -117.25301 1945 ft 225 kts 290°
2026-05-05 19:12 32.75827 -117.27033 2857 ft 227 kts 290°
2026-05-05 19:12 32.76389 -117.28811 3590 ft 235 kts 290°
2026-05-05 19:12 32.76969 -117.30652 4325 ft 242 kts 287°
2026-05-05 19:13 32.77056 -117.32572 5048 ft 246 kts 260°
2026-05-05 19:13 32.76319 -117.34390 5877 ft 251 kts 232°
2026-05-05 19:13 32.74892 -117.35571 6692 ft 258 kts 204°
2026-05-05 19:13 32.73106 -117.35817 7457 ft 267 kts 176°
2026-05-05 19:14 32.71372 -117.35026 8185 ft 275 kts 150°
2026-05-05 19:14 32.69924 -117.33517 8912 ft 281 kts 138°
2026-05-05 19:14 32.68594 -117.31843 9564 ft 282 kts 134°
2026-05-05 19:14 32.67249 -117.30142 10120 ft 286 kts 134°
2026-05-05 19:15 32.65892 -117.28447 10680 ft 289 kts 136°
2026-05-05 19:15 32.64518 -117.26712 11238 ft 291 kts 133°
2026-05-05 19:15 32.63170 -117.24935 11712 ft 296 kts 130°
2026-05-05 19:15 32.62191 -117.22774 12096 ft 304 kts 110°
2026-05-05 19:16 32.61746 -117.20310 12554 ft 306 kts 98°
2026-05-05 19:16 32.61582 -117.17797 12941 ft 308 kts 92°
2026-05-05 19:16 32.61503 -117.15245 13337 ft 311 kts 91°
2026-05-05 19:16 32.61445 -117.12686 13726 ft 313 kts 91°
2026-05-05 19:17 32.61389 -117.10130 14093 ft 315 kts 91°
2026-05-05 19:17 32.61328 -117.07542 14458 ft 317 kts 91°
2026-05-05 19:17 32.61258 -117.04943 14812 ft 319 kts 92°
2026-05-05 19:17 32.61180 -117.02308 15150 ft 321 kts 92°
2026-05-05 19:18 32.61097 -116.99663 15468 ft 323 kts 92°
2026-05-05 19:18 32.61081 -116.96991 15778 ft 325 kts 87°
2026-05-05 19:18 32.61280 -116.94329 16156 ft 324 kts 83°
2026-05-05 19:18 32.61563 -116.91700 16548 ft 322 kts 82°
2026-05-05 19:19 32.61865 -116.89067 16896 ft 323 kts 81°
2026-05-05 19:19 32.62163 -116.86422 17210 ft 324 kts 82°
2026-05-05 19:19 32.62445 -116.83799 17514 ft 326 kts 82°
2026-05-05 19:19 32.62718 -116.81131 17803 ft 328 kts 82°
2026-05-05 19:20 32.62985 -116.78437 18076 ft 330 kts 83°
2026-05-05 19:20 32.63246 -116.75737 18339 ft 332 kts 83°
2026-05-05 19:20 32.63509 -116.73009 18592 ft 334 kts 83°
2026-05-05 19:20 32.63775 -116.70263 18837 ft 336 kts 83°
2026-05-05 19:21 32.64046 -116.67505 19069 ft 338 kts 83°
2026-05-05 19:21 32.64318 -116.64728 19295 ft 340 kts 83°
2026-05-05 19:21 32.64591 -116.61945 19512 ft 342 kts 83°
2026-05-05 19:21 32.64861 -116.59173 19705 ft 344 kts 83°
2026-05-05 19:22 32.65135 -116.56343 19895 ft 346 kts 83°
2026-05-05 19:22 32.65411 -116.53494 20082 ft 348 kts 83°
2026-05-05 19:22 32.65686 -116.50638 20291 ft 349 kts 83°
2026-05-05 19:22 32.65960 -116.47787 20527 ft 349 kts 83°
2026-05-05 19:23 32.66237 -116.44918 20727 ft 350 kts 84°
2026-05-05 19:23 32.66513 -116.42047 20896 ft 352 kts 84°
2026-05-05 19:23 32.66786 -116.39181 21062 ft 354 kts 84°
2026-05-05 19:23 32.67063 -116.36272 21228 ft 356 kts 84°
2026-05-05 19:24 32.67340 -116.33350 21387 ft 358 kts 84°
2026-05-05 19:24 32.67617 -116.30409 21540 ft 360 kts 84°
2026-05-05 19:24 32.67895 -116.27461 21686 ft 361 kts 84°
2026-05-05 19:24 32.68175 -116.24497 21836 ft 363 kts 84°
2026-05-05 19:25 32.68458 -116.21520 21972 ft 364 kts 84°
2026-05-05 19:25 32.68741 -116.18528 22102 ft 366 kts 84°
2026-05-05 19:25 32.69021 -116.15521 22231 ft 367 kts 84°
2026-05-05 19:25 32.69300 -116.12506 22362 ft 369 kts 84°
2026-05-05 19:26 32.69580 -116.09468 22491 ft 370 kts 84°
2026-05-05 19:26 32.69855 -116.06481 22604 ft 371 kts 85°
2026-05-05 19:26 32.70139 -116.03425 22715 ft 373 kts 84°
2026-05-05 19:26 32.70425 -116.00368 22813 ft 375 kts 85°
2026-05-05 19:27 32.70710 -115.97287 22869 ft 377 kts 85°
2026-05-05 19:27 32.71005 -115.94177 22890 ft 381 kts 85°
2026-05-05 19:27 32.71299 -115.91043 22902 ft 385 kts 85°
2026-05-05 19:27 32.71588 -115.87860 22902 ft 389 kts 85°
2026-05-05 19:28 32.71874 -115.84650 22902 ft 393 kts 85°
2026-05-05 19:28 32.72156 -115.81465 22901 ft 396 kts 85°
2026-05-05 19:28 32.72447 -115.78196 22900 ft 399 kts 85°
2026-05-05 19:28 32.72741 -115.74895 22900 ft 401 kts 85°
2026-05-05 19:29 32.73026 -115.71699 22899 ft 402 kts 85°
2026-05-05 19:29 32.73322 -115.68381 22899 ft 403 kts 85°
2026-05-05 19:29 32.73618 -115.65076 22898 ft 404 kts 85°
2026-05-05 19:29 32.73917 -115.61746 22895 ft 405 kts 85°
2026-05-05 19:30 32.74215 -115.58415 22892 ft 406 kts 85°
2026-05-05 19:30 32.74514 -115.55090 22876 ft 406 kts 85°
2026-05-05 19:30 32.74812 -115.51765 22889 ft 404 kts 86°
2026-05-05 19:30 32.75060 -115.48445 22886 ft 404 kts 88°
2026-05-05 19:31 32.75176 -115.45153 22885 ft 404 kts 91°
2026-05-05 19:31 32.75226 -115.41815 22885 ft 404 kts 92°
2026-05-05 19:31 32.75249 -115.38478 22886 ft 404 kts 92°
2026-05-05 19:31 32.75276 -115.35139 22888 ft 405 kts 92°
2026-05-05 19:32 32.75324 -115.31798 22890 ft 405 kts 91°
2026-05-05 19:32 32.75392 -115.28454 22891 ft 405 kts 91°
2026-05-05 19:32 32.75475 -115.25113 22893 ft 405 kts 91°
2026-05-05 19:32 32.75563 -115.21776 22893 ft 405 kts 91°
2026-05-05 19:33 32.75647 -115.18468 22893 ft 405 kts 91°
2026-05-05 19:33 32.75727 -115.15128 22893 ft 405 kts 91°
2026-05-05 19:33 32.75804 -115.11777 22893 ft 406 kts 91°
2026-05-05 19:33 32.75878 -115.08437 22892 ft 406 kts 91°
2026-05-05 19:34 32.75951 -115.05089 22891 ft 406 kts 91°
2026-05-05 19:34 32.76022 -115.01737 22890 ft 406 kts 91°
2026-05-05 19:34 32.76091 -114.98392 22889 ft 406 kts 92°
2026-05-05 19:35 32.76227 -114.91678 22887 ft 406 kts 92°
2026-05-05 19:35 32.76294 -114.88378 22885 ft 406 kts 92°
2026-05-05 19:35 32.76359 -114.85021 22884 ft 406 kts 92°
2026-05-05 19:35 32.76424 -114.81669 22882 ft 406 kts 92°
2026-05-05 19:36 32.76489 -114.78317 22882 ft 406 kts 92°
2026-05-05 19:36 32.76552 -114.74958 22881 ft 407 kts 92°
2026-05-05 19:36 32.76614 -114.71603 22880 ft 407 kts 92°
2026-05-05 19:36 32.76674 -114.68248 22879 ft 407 kts 92°
2026-05-05 19:37 32.76735 -114.64923 22878 ft 407 kts 92°
2026-05-05 19:37 32.76796 -114.61565 22878 ft 407 kts 92°
2026-05-05 19:37 32.76855 -114.58203 22868 ft 407 kts 93°
2026-05-05 19:37 32.76904 -114.54805 22411 ft 412 kts 94°
2026-05-05 19:38 32.76935 -114.52510 22112 ft 412 kts 93°
2026-05-05 19:38 32.76991 -114.48012 21521 ft 410 kts 93°
2026-05-05 19:38 32.77028 -114.44635 21079 ft 408 kts 93°
2026-05-05 19:38 32.77053 -114.42404 20786 ft 406 kts 93°
2026-05-05 19:39 32.77107 -114.37937 20201 ft 403 kts 92°
2026-05-05 19:39 32.77135 -114.35733 19912 ft 401 kts 92°
2026-05-05 19:39 32.77190 -114.31350 19339 ft 398 kts 92°
2026-05-05 19:39 32.77231 -114.28075 18910 ft 396 kts 92°
2026-05-05 19:40 32.77272 -114.24813 18483 ft 393 kts 92°
2026-05-05 19:40 32.77309 -114.21574 18051 ft 391 kts 92°
2026-05-05 19:40 32.77345 -114.18370 17638 ft 387 kts 92°
2026-05-05 19:40 32.77371 -114.16212 17362 ft 385 kts 92°
2026-05-05 19:41 32.77410 -114.13077 16950 ft 383 kts 92°
2026-05-05 19:41 32.77447 -114.09883 16532 ft 381 kts 92°
2026-05-05 19:41 32.77482 -114.06781 16125 ft 379 kts 92°
2026-05-05 19:41 32.77515 -114.03652 15715 ft 377 kts 92°
2026-05-05 19:42 32.77544 -114.00552 15308 ft 375 kts 92°
2026-05-05 19:42 32.77644 -113.96445 15003 ft 377 kts 88°
2026-05-05 19:42 32.77856 -113.94360 14955 ft 379 kts 83°
2026-05-05 19:42 32.78469 -113.90258 14902 ft 381 kts 81°
2026-05-05 19:43 32.78817 -113.88169 14889 ft 382 kts 80°
2026-05-05 19:43 32.79363 -113.85072 14880 ft 383 kts 79°
2026-05-05 19:43 32.79916 -113.82017 14729 ft 380 kts 80°
2026-05-05 19:43 32.80474 -113.78985 14478 ft 371 kts 79°
2026-05-05 19:44 32.81034 -113.76023 14228 ft 364 kts 79°
2026-05-05 19:44 32.81588 -113.73111 13977 ft 358 kts 79°
2026-05-05 19:44 32.82136 -113.70240 13727 ft 354 kts 79°
2026-05-05 19:44 32.82677 -113.67408 13477 ft 350 kts 79°
2026-05-05 19:45 32.83214 -113.64595 13227 ft 347 kts 79°
2026-05-05 19:45 32.83743 -113.61815 12977 ft 344 kts 79°
2026-05-05 19:45 32.84258 -113.59083 12730 ft 342 kts 79°
2026-05-05 19:45 32.84777 -113.56329 12480 ft 340 kts 79°
2026-05-05 19:46 32.85292 -113.53592 12230 ft 338 kts 79°
2026-05-05 19:46 32.85804 -113.50872 11980 ft 336 kts 79°
2026-05-05 19:46 32.86314 -113.48166 11730 ft 335 kts 79°
2026-05-05 19:46 32.86824 -113.45472 11476 ft 332 kts 79°
2026-05-05 19:47 32.87327 -113.42813 11224 ft 327 kts 79°
2026-05-05 19:47 32.87823 -113.40197 10973 ft 322 kts 79°
2026-05-05 19:47 32.88307 -113.37651 10725 ft 317 kts 79°
2026-05-05 19:47 32.88792 -113.35108 10474 ft 313 kts 79°
2026-05-05 19:48 32.89269 -113.32610 10224 ft 309 kts 79°
2026-05-05 19:48 32.89737 -113.30142 9971 ft 304 kts 79°
2026-05-05 19:48 32.90197 -113.27716 9844 ft 298 kts 79°
2026-05-05 19:48 32.90647 -113.25315 9732 ft 296 kts 79°
2026-05-05 19:49 32.91088 -113.22922 9606 ft 296 kts 79°
2026-05-05 19:49 32.91528 -113.20530 9483 ft 296 kts 79°
2026-05-05 19:49 32.91967 -113.18141 9358 ft 296 kts 79°
2026-05-05 19:49 32.92401 -113.15780 9236 ft 295 kts 79°
2026-05-05 19:50 32.92837 -113.13404 9111 ft 295 kts 79°
2026-05-05 19:50 32.93275 -113.11015 8986 ft 294 kts 79°
2026-05-05 19:50 32.93710 -113.08639 8862 ft 294 kts 79°
2026-05-05 19:50 32.94144 -113.06270 8737 ft 293 kts 79°
2026-05-05 19:51 32.94580 -113.03898 8612 ft 293 kts 79°
2026-05-05 19:51 32.95015 -113.01535 8487 ft 292 kts 79°
2026-05-05 19:51 32.95449 -112.99176 8359 ft 291 kts 79°
2026-05-05 19:51 32.95875 -112.96863 8239 ft 289 kts 79°
2026-05-05 19:52 32.96304 -112.94526 8112 ft 288 kts 79°
2026-05-05 19:52 32.96731 -112.92210 7987 ft 286 kts 79°
2026-05-05 19:52 32.97159 -112.89902 7861 ft 284 kts 79°
2026-05-05 19:52 32.97583 -112.87623 7736 ft 282 kts 79°
2026-05-05 19:53 32.98069 -112.85366 7609 ft 281 kts 73°
2026-05-05 19:53 32.98776 -112.83204 7488 ft 279 kts 68°
2026-05-05 19:53 32.99552 -112.81051 7514 ft 285 kts 68°
2026-05-05 19:53 33.00333 -112.78865 7522 ft 286 kts 68°
2026-05-05 19:54 33.01112 -112.76686 7526 ft 287 kts 68°
2026-05-05 19:54 33.01886 -112.74523 7527 ft 288 kts 68°
2026-05-05 19:54 33.02671 -112.72331 7521 ft 286 kts 68°
2026-05-05 19:54 33.03449 -112.70162 7538 ft 285 kts 68°
2026-05-05 19:55 33.04231 -112.67982 7533 ft 286 kts 68°
2026-05-05 19:55 33.05013 -112.65803 7530 ft 287 kts 68°
2026-05-05 19:55 33.05799 -112.63614 7524 ft 286 kts 68°
2026-05-05 19:55 33.06582 -112.61437 7535 ft 286 kts 68°
2026-05-05 19:56 33.07367 -112.59257 7533 ft 287 kts 68°
2026-05-05 19:56 33.08146 -112.57096 7528 ft 288 kts 68°
2026-05-05 19:56 33.08938 -112.54901 7525 ft 288 kts 67°
2026-05-05 19:56 33.09723 -112.52722 7525 ft 284 kts 68°
2026-05-05 19:57 33.10500 -112.50564 7531 ft 281 kts 68°
2026-05-05 19:57 33.11271 -112.48430 7529 ft 281 kts 68°
2026-05-05 19:57 33.12046 -112.46287 7526 ft 282 kts 68°
2026-05-05 19:57 33.12820 -112.44134 7527 ft 282 kts 68°
2026-05-05 19:58 33.13576 -112.41979 7529 ft 282 kts 69°
2026-05-05 19:58 33.14314 -112.39848 7527 ft 281 kts 69°
2026-05-05 19:58 33.15056 -112.37692 7527 ft 281 kts 69°
2026-05-05 19:58 33.15786 -112.35575 7527 ft 280 kts 69°
2026-05-05 19:59 33.16532 -112.33420 7523 ft 280 kts 69°
2026-05-05 19:59 33.17273 -112.31276 7521 ft 280 kts 69°
2026-05-05 19:59 33.18017 -112.29129 7520 ft 280 kts 69°
2026-05-05 19:59 33.18758 -112.26986 7519 ft 279 kts 69°
2026-05-05 20:00 33.19500 -112.24847 7518 ft 279 kts 69°
2026-05-05 20:00 33.20244 -112.22702 7517 ft 279 kts 69°
2026-05-05 20:00 33.20974 -112.20597 7516 ft 279 kts 69°
2026-05-05 20:00 33.21711 -112.18459 7510 ft 279 kts 69°
2026-05-05 20:01 33.22433 -112.16308 7388 ft 279 kts 70°
2026-05-05 20:01 33.23147 -112.14164 7262 ft 277 kts 70°
2026-05-05 20:01 33.23855 -112.12042 7138 ft 275 kts 70°
2026-05-05 20:01 33.24559 -112.09924 7012 ft 273 kts 70°
2026-05-05 20:02 33.25258 -112.07814 6887 ft 272 kts 70°
2026-05-05 20:02 33.25952 -112.05718 6762 ft 271 kts 70°
2026-05-05 20:02 33.26646 -112.03627 6637 ft 270 kts 70°
2026-05-05 20:02 33.27337 -112.01546 6511 ft 269 kts 70°
2026-05-05 20:03 33.28022 -111.99495 6388 ft 269 kts 70°
2026-05-05 20:03 33.28716 -111.97425 6263 ft 268 kts 70°
2026-05-05 20:03 33.29414 -111.95345 6137 ft 267 kts 70°
2026-05-05 20:03 33.29897 -111.93214 6011 ft 265 kts 83°
2026-05-05 20:04 33.30098 -111.91023 5886 ft 264 kts 87°
2026-05-05 20:04 33.30256 -111.88925 5766 ft 264 kts 86°
2026-05-05 20:04 33.30425 -111.86743 5641 ft 263 kts 86°
2026-05-05 20:04 33.30596 -111.84560 5516 ft 263 kts 86°
2026-05-05 20:05 33.30766 -111.82382 5391 ft 263 kts 86°
2026-05-05 20:05 33.30983 -111.80242 5257 ft 264 kts 78°
2026-05-05 20:05 33.31832 -111.78314 5136 ft 266 kts 49°
2026-05-05 20:05 33.33355 -111.77097 5010 ft 266 kts 19°
2026-05-05 20:06 33.35171 -111.76762 4890 ft 265 kts
2026-05-05 20:06 33.37006 -111.76763 4765 ft 264 kts 359°
2026-05-05 20:06 33.38838 -111.76802 4638 ft 264 kts 358°
2026-05-05 20:06 33.40587 -111.77363 4504 ft 262 kts 331°
2026-05-05 20:07 33.41957 -111.78750 4384 ft 258 kts 309°
2026-05-05 20:07 33.42941 -111.80445 4125 ft 240 kts 294°
2026-05-05 20:07 33.43479 -111.82273 3842 ft 231 kts 281°
2026-05-05 20:07 33.43749 -111.84093 3609 ft 216 kts 275°
2026-05-05 20:08 33.43915 -111.85849 3309 ft 207 kts 274°
2026-05-05 20:08 33.44031 -111.87551 3033 ft 203 kts 272°
2026-05-05 20:08 33.44098 -111.89192 2766 ft 190 kts 270°
2026-05-05 20:08 33.44129 -111.90689 2536 ft 166 kts 268°
2026-05-05 20:09 33.44144 -111.91979 2328 ft 150 kts 267°
2026-05-05 20:09 33.44133 -111.93197 2132 ft 146 kts 266°
2026-05-05 20:09 33.44107 -111.94405 1941 ft 145 kts 266°
2026-05-05 20:09 33.44091 -111.95288 1800 ft 145 kts 267°
2026-05-05 20:10 33.44079 -111.95862 1713 ft 145 kts 268°
2026-05-05 20:10 33.44071 -111.97008 1514 ft 131 kts 269°
2026-05-05 20:10 33.44086 -111.98060 1340 ft 124 kts 269°
2026-05-05 20:10 33.44088 -111.99111 1207 ft 127 kts 267°
2026-05-05 20:11 33.44084 -112.00144 1144 ft 116 kts 269°
2026-05-05 20:11 33.44081 -112.00862 1143 ft 58 kts 271°
2026-05-05 20:11 33.44084 -112.01098 1143 ft 19 kts 270°
2026-05-05 20:11 33.44086 -112.01281 1143 ft 16 kts 267°
2026-05-05 20:12 33.44050 -112.01357 1143 ft 5 kts 206°
2026-05-05 20:12 33.44017 -112.01381 1143 ft 8 kts 219°
2026-05-05 20:12 33.43943 -112.01433 1143 ft 14 kts 186°
2026-05-05 20:12 33.43898 -112.01356 1143 ft 14 kts 89°
2026-05-05 20:13 33.43899 -112.01226 1143 ft 18 kts 91°
2026-05-05 20:13 33.43896 -112.01048 1143 ft 19 kts 90°
2026-05-05 20:13 33.43896 -112.00940 1143 ft 10 kts 90°
2026-05-05 20:13 33.43895 -112.00847 1143 ft 15 kts 90°
2026-05-05 20:14 33.43897 -112.00719 1143 ft 16 kts 88°
2026-05-05 20:14 33.43897 -112.00580 1143 ft 17 kts 91°
2026-05-05 20:14 33.43895 -112.00477 1143 ft 8 kts 90°